Time,TemperatureF,DewpointF,PressureIn,WindDirection,WindDirectionDegrees,WindSpeedMPH,WindSpeedGustMPH,Humidity,HourlyPrecipIn,Conditions,Clouds,dailyrainin,SoftwareType,DateUTC
2013-08-04 00:01:00,67.7,18.8,30.03,WNW,293,0.4,0.7,16,0.00,,,0.00,WUHU216HW,2013-08-04 04:01:00,
2013-08-04 00:06:00,67.5,17.1,30.03,SW,225,0.0,1.1,15,0.00,,,0.00,WUHU216HW,2013-08-04 04:06:00,
2013-08-04 00:11:00,67.3,16.9,30.03,SSW,203,0.0,1.1,15,0.00,,,0.00,WUHU216HW,2013-08-04 04:11:00,
2013-08-04 00:16:00,67.3,16.9,30.03,WSW,248,0.2,0.2,15,0.00,,,0.00,WUHU216HW,2013-08-04 04:16:00,
2013-08-04 00:21:00,67.3,16.9,30.03,WSW,248,0.0,0.2,15,0.00,,,0.00,WUHU216HW,2013-08-04 04:21:00,
2013-08-04 00:26:00,67.0,13.4,30.03,West,270,0.4,0.4,13,0.00,,,0.00,WUHU216HW,2013-08-04 04:26:00,
2013-08-04 00:32:00,67.0,13.4,30.03,West,270,0.0,0.4,13,0.00,,,0.00,WUHU216HW,2013-08-04 04:32:00,
2013-08-04 00:37:00,66.8,13.3,30.03,South,180,0.0,0.4,13,0.00,,,0.00,WUHU216HW,2013-08-04 04:37:00,
2013-08-04 00:42:00,66.6,11.5,30.03,WNW,293,0.9,0.9,12,0.00,,,0.00,WUHU216HW,2013-08-04 04:42:00,
2013-08-04 00:47:00,66.4,11.4,30.03,WNW,293,0.2,0.9,12,0.00,,,0.00,WUHU216HW,2013-08-04 04:47:00,
2013-08-04 00:52:00,66.2,9.7,30.02,WNW,293,0.0,0.4,11,0.00,,,0.00,WUHU216HW,2013-08-04 04:52:00,
2013-08-04 00:57:00,66.2,9.7,30.02,WNW,293,0.0,0.2,11,0.00,,,0.00,WUHU216HW,2013-08-04 04:57:00,
2013-08-04 01:02:00,66.1,7.9,30.02,West,270,0.2,0.7,10,0.00,,,0.00,WUHU216HW,2013-08-04 05:02:00,
2013-08-04 01:07:00,66.1,7.9,30.02,WSW,248,0.2,0.7,10,0.00,,,0.00,WUHU216HW,2013-08-04 05:07:00,
2013-08-04 01:13:00,66.1,7.9,30.02,WSW,248,0.2,0.9,10,0.00,,,0.00,WUHU216HW,2013-08-04 05:13:00,
2013-08-04 01:18:00,65.9,7.8,30.02,West,270,0.2,0.9,10,0.00,,,0.00,WUHU216HW,2013-08-04 05:18:00,
2013-08-04 01:23:00,65.9,7.8,30.02,WNW,293,0.0,0.9,10,0.00,,,0.00,WUHU216HW,2013-08-04 05:23:00,
2013-08-04 01:28:00,65.7,7.7,30.02,WNW,293,0.4,1.1,8,0.00,,,0.00,WUHU216HW,2013-08-04 05:28:00,
2013-08-04 01:33:00,65.7,7.7,30.01,NNW,338,0.4,1.1,8,0.00,,,0.00,WUHU216HW,2013-08-04 05:33:00,
2013-08-04 01:38:00,65.5,7.6,30.01,NNW,338,0.4,1.1,8,0.00,,,0.00,WUHU216HW,2013-08-04 05:38:00,
2013-08-04 01:43:00,65.5,7.6,30.01,NNW,338,0.7,1.1,7,0.00,,,0.00,WUHU216HW,2013-08-04 05:43:00,
2013-08-04 01:48:00,65.5,7.6,30.01,NNW,338,0.2,0.7,7,0.00,,,0.00,WUHU216HW,2013-08-04 05:48:00,
2013-08-04 01:53:00,65.3,7.4,30.01,NNW,338,0.0,0.4,7,0.00,,,0.00,WUHU216HW,2013-08-04 05:53:00,
2013-08-04 01:58:00,65.2,7.2,30.01,NNW,338,0.0,0.4,7,0.00,,,0.00,WUHU216HW,2013-08-04 05:58:00,
2013-08-04 02:03:00,65.2,7.2,30.01,NNW,338,0.0,0.4,7,0.00,,,0.00,WUHU216HW,2013-08-04 06:03:00,
2013-08-04 02:08:00,65.2,7.2,30.01,NNW,338,0.0,0.4,7,0.00,,,0.00,WUHU216HW,2013-08-04 06:08:00,
2013-08-04 02:13:00,65.2,7.2,30.01,NNW,338,0.0,0.4,7,0.00,,,0.00,WUHU216HW,2013-08-04 06:13:00,
2013-08-04 02:18:00,65.2,7.2,30.01,NNW,338,0.2,0.2,7,0.00,,,0.00,WUHU216HW,2013-08-04 06:18:00,
2013-08-04 02:23:00,65.2,7.2,30.01,NNW,338,0.2,0.2,7,0.00,,,0.00,WUHU216HW,2013-08-04 06:23:00,
2013-08-04 02:28:00,65.0,7.1,30.01,NNW,338,0.2,0.4,6,0.00,,,0.00,WUHU216HW,2013-08-04 06:28:00,
2013-08-04 02:33:00,65.0,7.1,30.01,NNW,338,0.0,0.4,6,0.00,,,0.00,WUHU216HW,2013-08-04 06:33:00,
2013-08-04 02:38:00,65.0,7.1,30.01,NNW,338,0.0,0.0,6,0.00,,,0.00,WUHU216HW,2013-08-04 06:38:00,
2013-08-04 02:43:00,64.8,6.9,30.01,NNW,338,0.0,0.4,6,0.00,,,0.00,WUHU216HW,2013-08-04 06:43:00,
2013-08-04 02:48:00,64.8,6.9,30.01,NNW,338,0.2,0.4,6,0.00,,,0.00,WUHU216HW,2013-08-04 06:48:00,
2013-08-04 02:53:00,64.8,6.9,30.01,NNW,338,0.2,0.2,6,0.00,,,0.00,WUHU216HW,2013-08-04 06:53:00,
2013-08-04 02:58:00,64.6,6.9,30.01,NNW,338,0.0,0.2,5,0.00,,,0.00,WUHU216HW,2013-08-04 06:58:00,
2013-08-04 03:03:00,64.8,6.9,30.01,NNW,338,0.0,0.0,5,0.00,,,0.00,WUHU216HW,2013-08-04 07:03:00,
2013-08-04 03:09:00,64.8,6.9,30.01,NNW,338,0.0,0.2,5,0.00,,,0.00,WUHU216HW,2013-08-04 07:09:00,
2013-08-04 03:14:00,64.6,6.9,30.01,NNW,338,0.0,0.0,5,0.00,,,0.00,WUHU216HW,2013-08-04 07:14:00,
2013-08-04 03:19:00,64.6,6.9,30.01,NNW,338,0.0,0.0,5,0.00,,,0.00,WUHU216HW,2013-08-04 07:19:00,
2013-08-04 03:24:00,64.6,6.9,30.01,NNW,338,0.0,0.0,5,0.00,,,0.00,WUHU216HW,2013-08-04 07:24:00,
2013-08-04 03:29:00,64.4,6.7,30.01,NNW,338,0.0,0.0,5,0.00,,,0.00,WUHU216HW,2013-08-04 07:29:00,
2013-08-04 03:34:00,64.4,6.7,30.01,NNW,338,0.0,0.0,5,0.00,,,0.00,WUHU216HW,2013-08-04 07:34:00,
2013-08-04 03:39:00,64.4,6.7,30.01,NNW,338,0.0,0.0,5,0.00,,,0.00,WUHU216HW,2013-08-04 07:39:00,
2013-08-04 03:44:00,64.4,6.7,30.01,NNW,338,0.0,0.0,5,0.00,,,0.00,WUHU216HW,2013-08-04 07:44:00,
2013-08-04 03:59:00,64.1,6.4,30.01,NNW,338,0.0,0.0,5,0.00,,,0.00,WUHU216HW,2013-08-04 07:59:00,
2013-08-04 04:05:00,63.9,6.3,30.01,NNW,338,0.0,0.0,5,0.00,,,0.00,WUHU216HW,2013-08-04 08:05:00,
2013-08-04 04:10:00,63.7,6.1,30.01,NNW,338,0.0,0.0,5,0.00,,,0.00,WUHU216HW,2013-08-04 08:10:00,
2013-08-04 04:15:00,63.7,6.1,30.01,WNW,293,0.0,0.7,5,0.00,,,0.00,WUHU216HW,2013-08-04 08:15:00,
2013-08-04 04:20:00,63.7,6.1,30.01,WNW,293,0.0,0.7,5,0.00,,,0.00,WUHU216HW,2013-08-04 08:20:00,
2013-08-04 04:25:00,63.5,6.0,30.01,WNW,293,0.0,0.0,5,0.00,,,0.00,WUHU216HW,2013-08-04 08:25:00,
2013-08-04 04:30:00,63.5,6.0,30.01,WNW,293,0.0,0.0,5,0.00,,,0.00,WUHU216HW,2013-08-04 08:30:00,
2013-08-04 04:34:00,63.4,6.0,30.01,WNW,293,0.0,0.0,5,0.00,,,0.00,WUHU216HW,2013-08-04 08:34:00,
2013-08-04 04:40:00,63.4,6.0,30.01,WNW,293,0.0,0.0,3,0.00,,,0.00,WUHU216HW,2013-08-04 08:40:00,
2013-08-04 04:45:00,63.4,6.0,30.01,WNW,293,0.0,0.0,3,0.00,,,0.00,WUHU216HW,2013-08-04 08:45:00,
2013-08-04 04:50:00,63.4,6.0,30.01,WNW,293,0.0,0.0,3,0.00,,,0.00,WUHU216HW,2013-08-04 08:50:00,
2013-08-04 04:55:00,63.4,6.0,30.00,WNW,293,0.0,0.0,3,0.00,,,0.00,WUHU216HW,2013-08-04 08:55:00,
2013-08-04 05:00:00,63.4,6.0,30.00,WNW,293,0.0,0.0,3,0.00,,,0.00,WUHU216HW,2013-08-04 09:00:00,
2013-08-04 05:04:00,63.2,5.8,30.00,WNW,293,0.0,0.0,3,0.00,,,0.00,WUHU216HW,2013-08-04 09:04:00,
2013-08-04 05:09:00,63.0,5.7,30.00,WNW,293,0.0,0.0,3,0.00,,,0.00,WUHU216HW,2013-08-04 09:09:00,
2013-08-04 05:15:00,63.0,5.7,30.00,WNW,293,0.0,0.0,3,0.00,,,0.00,WUHU216HW,2013-08-04 09:15:00,
2013-08-04 05:20:00,63.0,5.7,30.00,WNW,293,0.0,0.0,3,0.00,,,0.00,WUHU216HW,2013-08-04 09:20:00,
2013-08-04 05:25:00,63.0,5.7,30.00,WNW,293,0.0,0.0,3,0.00,,,0.00,WUHU216HW,2013-08-04 09:25:00,
2013-08-04 05:30:00,62.8,5.5,30.00,WNW,293,0.0,0.0,3,0.00,,,0.00,WUHU216HW,2013-08-04 09:30:00,
2013-08-04 05:35:00,62.6,5.4,30.01,WNW,293,0.0,0.0,4,0.00,,,0.00,WUHU216HW,2013-08-04 09:35:00,
2013-08-04 05:39:00,62.6,5.4,30.01,WNW,293,0.0,0.0,3,0.00,,,0.00,WUHU216HW,2013-08-04 09:39:00,
2013-08-04 05:44:00,62.6,5.4,30.01,WNW,293,0.0,0.0,3,0.00,,,0.00,WUHU216HW,2013-08-04 09:44:00,
2013-08-04 05:50:00,62.5,5.2,30.01,WNW,293,0.0,0.0,3,0.00,,,0.00,WUHU216HW,2013-08-04 09:50:00,
2013-08-04 05:54:00,62.3,5.1,30.01,WNW,293,0.0,0.0,3,0.00,,,0.00,WUHU216HW,2013-08-04 09:54:00,
2013-08-04 05:59:00,62.3,5.1,30.01,WNW,293,0.0,0.0,3,0.00,,,0.00,WUHU216HW,2013-08-04 09:59:00,
2013-08-04 06:05:00,62.3,5.1,30.01,WNW,293,0.0,0.0,3,0.00,,,0.00,WUHU216HW,2013-08-04 10:05:00,
2013-08-04 06:10:00,62.3,5.1,30.02,WNW,293,0.0,0.0,3,0.00,,,0.00,WUHU216HW,2013-08-04 10:10:00,
2013-08-04 06:15:00,62.3,5.1,30.02,WNW,293,0.0,0.0,3,0.00,,,0.00,WUHU216HW,2013-08-04 10:15:00,
2013-08-04 06:20:00,62.3,5.1,30.02,WNW,293,0.0,0.0,3,0.00,,,0.00,WUHU216HW,2013-08-04 10:20:00,
2013-08-04 06:25:00,62.3,5.1,30.02,WNW,293,0.0,0.0,3,0.00,,,0.00,WUHU216HW,2013-08-04 10:25:00,
2013-08-04 06:30:00,62.3,5.1,30.02,WNW,293,0.4,0.4,3,0.00,,,0.00,WUHU216HW,2013-08-04 10:30:00,
2013-08-04 06:35:00,62.5,5.2,30.02,WNW,293,0.0,0.4,2,0.00,,,0.00,WUHU216HW,2013-08-04 10:35:00,
2013-08-04 06:40:00,62.5,5.2,30.02,WNW,293,0.0,0.4,2,0.00,,,0.00,WUHU216HW,2013-08-04 10:40:00,
2013-08-04 06:45:00,62.5,5.2,30.02,WNW,293,0.0,0.0,2,0.00,,,0.00,WUHU216HW,2013-08-04 10:45:00,
2013-08-04 06:50:00,62.6,5.4,30.02,WNW,293,0.0,0.0,2,0.00,,,0.00,WUHU216HW,2013-08-04 10:50:00,
2013-08-04 06:55:00,62.8,5.5,30.03,WNW,293,0.0,0.0,2,0.00,,,0.00,WUHU216HW,2013-08-04 10:55:00,
2013-08-04 07:00:00,63.0,5.7,30.03,WNW,293,0.0,0.0,2,0.00,,,0.00,WUHU216HW,2013-08-04 11:00:00,
2013-08-04 07:05:00,63.4,6.0,30.03,WNW,293,0.0,0.0,2,0.00,,,0.00,WUHU216HW,2013-08-04 11:05:00,
2013-08-04 07:10:00,63.7,6.1,30.03,WNW,293,0.7,0.7,2,0.00,,,0.00,WUHU216HW,2013-08-04 11:10:00,
2013-08-04 07:15:00,63.7,6.1,30.03,WNW,293,0.2,0.7,2,0.00,,,0.00,WUHU216HW,2013-08-04 11:15:00,
2013-08-04 07:20:00,63.7,6.1,30.03,WNW,293,0.0,0.4,2,0.00,,,0.00,WUHU216HW,2013-08-04 11:20:00,
2013-08-04 07:25:00,63.9,6.3,30.03,WNW,293,0.7,0.7,2,0.00,,,0.00,WUHU216HW,2013-08-04 11:25:00,
2013-08-04 07:30:00,64.3,6.6,30.03,WNW,293,0.2,0.7,2,0.00,,,0.00,WUHU216HW,2013-08-04 11:30:00,
2013-08-04 07:35:00,64.3,6.6,30.03,WNW,293,0.0,0.4,3,0.00,,,0.00,WUHU216HW,2013-08-04 11:35:00,
2013-08-04 07:40:00,64.4,6.7,30.04,WNW,293,0.0,0.4,3,0.00,,,0.00,WUHU216HW,2013-08-04 11:40:00,
2013-08-04 07:45:00,65.0,7.1,30.04,WNW,293,0.0,0.2,2,0.00,,,0.00,WUHU216HW,2013-08-04 11:45:00,
2013-08-04 07:50:00,65.5,7.6,30.04,WNW,293,0.0,0.4,3,0.00,,,0.00,WUHU216HW,2013-08-04 11:50:00,
2013-08-04 07:55:00,65.9,7.8,30.04,NW,315,0.0,0.4,6,0.00,,,0.00,WUHU216HW,2013-08-04 11:55:00,
2013-08-04 08:00:00,66.1,7.9,30.04,NW,315,0.0,0.7,7,0.00,,,0.00,WUHU216HW,2013-08-04 12:00:00,
2013-08-04 08:05:00,66.4,8.3,30.04,NW,315,0.0,0.7,8,0.00,,,0.00,WUHU216HW,2013-08-04 12:05:00,
2013-08-04 08:10:00,67.0,8.6,30.04,NW,315,0.4,0.4,10,0.00,,,0.00,WUHU216HW,2013-08-04 12:10:00,
2013-08-04 08:15:00,67.5,13.9,30.05,NW,315,0.7,0.7,13,0.00,,,0.00,WUHU216HW,2013-08-04 12:15:00,
2013-08-04 08:20:00,68.0,17.6,30.05,NW,315,0.0,0.7,15,0.00,,,0.00,WUHU216HW,2013-08-04 12:20:00,
2013-08-04 08:25:00,68.6,21.2,30.05,NNE,23,0.2,0.7,17,0.00,,,0.00,WUHU216HW,2013-08-04 12:25:00,
2013-08-04 08:30:00,69.1,27.5,30.04,North,0,0.0,0.2,21,0.00,,,0.00,WUHU216HW,2013-08-04 12:30:00,
2013-08-04 08:31:00,69.1,27.5,30.04,North,0,0.0,0.2,21,0.00,,,0.00,WUHU216HW,2013-08-04 12:31:00,
2013-08-04 08:36:00,69.5,28.7,30.05,NNE,23,0.2,0.2,22,0.00,,,0.00,WUHU216HW,2013-08-04 12:36:00,
2013-08-04 08:41:00,69.7,28.9,30.05,NNE,23,0.0,0.2,22,0.00,,,0.00,WUHU216HW,2013-08-04 12:41:00,
2013-08-04 08:46:00,70.6,31.7,30.04,North,0,0.0,1.1,24,0.00,,,0.00,WUHU216HW,2013-08-04 12:46:00,
2013-08-04 08:50:00,71.5,45.8,30.05,North,0,1.1,1.1,40,0.00,,,0.00,WUHU216HW,2013-08-04 12:50:00,
2013-08-04 08:55:00,71.1,44.1,30.05,NNW,338,0.9,1.1,38,0.00,,,0.00,WUHU216HW,2013-08-04 12:55:00,
2013-08-04 09:01:00,71.6,45.4,30.05,NNW,338,1.1,1.1,39,0.00,,,0.00,WUHU216HW,2013-08-04 13:01:00,
2013-08-04 09:06:00,72.2,50.8,30.04,NNW,338,1.8,1.8,47,0.00,,,0.00,WUHU216HW,2013-08-04 13:06:00,
2013-08-04 09:10:00,72.4,52.1,30.04,NNW,338,1.6,1.8,49,0.00,,,0.00,WUHU216HW,2013-08-04 13:10:00,
2013-08-04 09:16:00,72.4,52.1,30.04,NNW,338,0.9,1.6,49,0.00,,,0.00,WUHU216HW,2013-08-04 13:16:00,
2013-08-04 09:21:00,72.7,50.6,30.04,NNW,338,1.6,1.8,46,0.00,,,0.00,WUHU216HW,2013-08-04 13:21:00,
2013-08-04 09:26:00,73.1,53.8,30.04,NNW,338,0.7,1.8,51,0.00,,,0.00,WUHU216HW,2013-08-04 13:26:00,
2013-08-04 09:30:00,73.3,53.5,30.04,NNW,338,0.7,1.6,50,0.00,,,0.00,WUHU216HW,2013-08-04 13:30:00,
2013-08-04 09:36:00,73.8,56.0,30.04,NNW,338,1.8,1.8,54,0.00,,,0.00,WUHU216HW,2013-08-04 13:36:00,
2013-08-04 09:41:00,73.8,55.0,30.04,NNW,338,0.4,2.9,52,0.00,,,0.00,WUHU216HW,2013-08-04 13:41:00,
2013-08-04 09:46:00,73.6,54.8,30.05,NNW,338,0.7,2.9,52,0.00,,,0.00,WUHU216HW,2013-08-04 13:46:00,
2013-08-04 09:51:00,73.8,55.0,30.04,NNW,338,0.0,1.1,52,0.00,,,0.00,WUHU216HW,2013-08-04 13:51:00,
2013-08-04 09:56:00,74.2,55.4,30.05,North,0,1.6,1.6,52,0.00,,,0.00,WUHU216HW,2013-08-04 13:56:00,
2013-08-04 10:01:00,73.8,56.5,30.05,NNW,338,1.1,1.6,55,0.00,,,0.00,WUHU216HW,2013-08-04 14:01:00,
2013-08-04 10:06:00,73.8,55.5,30.05,WNW,293,0.7,1.6,53,0.00,,,0.00,WUHU216HW,2013-08-04 14:06:00,
2013-08-04 10:11:00,74.2,57.4,30.05,NNW,338,0.4,1.1,56,0.00,,,0.00,WUHU216HW,2013-08-04 14:11:00,
2013-08-04 10:16:00,74.3,56.5,30.05,NNW,338,1.1,1.1,54,0.00,,,0.00,WUHU216HW,2013-08-04 14:16:00,
2013-08-04 10:21:00,74.5,56.7,30.05,North,0,1.1,1.1,54,0.00,,,0.00,WUHU216HW,2013-08-04 14:21:00,
2013-08-04 10:27:00,74.5,56.3,30.05,NNW,338,0.4,1.1,53,0.00,,,0.00,WUHU216HW,2013-08-04 14:27:00,
2013-08-04 10:32:00,74.9,58.2,30.05,NNW,338,0.4,2.5,56,0.00,,,0.00,WUHU216HW,2013-08-04 14:32:00,
2013-08-04 10:37:00,75.2,58.5,30.05,North,0,1.6,2.5,56,0.00,,,0.00,WUHU216HW,2013-08-04 14:37:00,
2013-08-04 10:42:00,75.2,58.5,30.05,North,0,0.7,1.6,56,0.00,,,0.00,WUHU216HW,2013-08-04 14:42:00,
2013-08-04 10:47:00,75.8,58.4,30.05,WNW,293,1.1,1.1,55,0.00,,,0.00,WUHU216HW,2013-08-04 14:47:00,
2013-08-04 10:52:00,76.3,59.4,30.05,North,0,1.1,1.1,56,0.00,,,0.00,WUHU216HW,2013-08-04 14:52:00,
2013-08-04 10:57:00,76.5,60.1,30.05,NNW,338,0.7,1.1,57,0.00,,,0.00,WUHU216HW,2013-08-04 14:57:00,
2013-08-04 11:01:00,76.7,60.3,30.05,North,0,0.0,0.0,57,0.00,,,0.00,WUHU216HW,2013-08-04 15:01:00,
2013-08-04 11:02:00,76.7,60.3,30.05,North,0,0.0,1.1,57,0.00,,,0.00,WUHU216HW,2013-08-04 15:02:00,
2013-08-04 11:07:00,76.7,60.3,30.05,North,0,0.0,0.7,57,0.00,,,0.00,WUHU216HW,2013-08-04 15:07:00,
2013-08-04 11:31:00,77.6,60.6,30.05,ESE,113,0.0,0.0,56,0.00,,,0.00,WUHU216HW,2013-08-04 15:31:00,
2013-08-04 11:36:00,78.3,61.3,30.05,SSW,203,0.9,0.9,56,0.00,,,0.00,WUHU216HW,2013-08-04 15:36:00,
2013-08-04 11:41:00,78.7,62.2,30.05,North,0,2.5,2.5,57,0.00,,,0.00,WUHU216HW,2013-08-04 15:41:00,
2013-08-04 11:46:00,78.5,62.0,30.05,NW,315,0.0,2.5,57,0.00,,,0.00,WUHU216HW,2013-08-04 15:46:00,
2013-08-04 11:51:00,78.3,61.8,30.05,NW,315,0.7,1.8,57,0.00,,,0.00,WUHU216HW,2013-08-04 15:51:00,
2013-08-04 11:56:00,78.1,61.1,30.05,NNW,338,1.1,1.8,56,0.00,,,0.00,WUHU216HW,2013-08-04 15:56:00,
2013-08-04 12:01:00,78.3,60.3,30.05,NNW,338,2.0,2.2,54,0.00,,,0.00,WUHU216HW,2013-08-04 16:01:00,
2013-08-04 12:06:00,78.5,61.5,30.05,NNW,338,1.8,2.2,56,0.00,,,0.00,WUHU216HW,2013-08-04 16:06:00,
2013-08-04 12:12:00,78.5,60.9,30.05,NNW,338,0.7,1.8,55,0.00,,,0.00,WUHU216HW,2013-08-04 16:12:00,
2013-08-04 12:17:00,78.5,59.4,30.04,NW,315,2.5,2.5,52,0.00,,,0.00,WUHU216HW,2013-08-04 16:17:00,
2013-08-04 12:22:00,78.5,60.9,30.04,North,0,1.1,2.5,55,0.00,,,0.00,WUHU216HW,2013-08-04 16:22:00,
2013-08-04 12:23:00,78.5,60.9,30.04,North,0,1.1,2.5,55,0.00,,,0.00,WUHU216HW,2013-08-04 16:23:00,
2013-08-04 12:28:00,78.7,60.1,30.04,NNW,338,4.0,4.0,53,0.00,,,0.00,WUHU216HW,2013-08-04 16:28:00,
2013-08-04 12:34:00,78.7,60.6,30.04,SW,225,1.1,4.0,54,0.00,,,0.00,WUHU216HW,2013-08-04 16:34:00,
2013-08-04 12:39:00,79.2,60.0,30.04,North,0,3.4,3.4,52,0.00,,,0.00,WUHU216HW,2013-08-04 16:39:00,
2013-08-04 12:44:00,79.2,59.5,30.04,NNW,338,4.0,4.0,51,0.00,,,0.00,WUHU216HW,2013-08-04 16:44:00,
2013-08-04 12:49:00,79.0,59.9,30.04,NNW,338,1.8,4.0,52,0.00,,,0.00,WUHU216HW,2013-08-04 16:49:00,
2013-08-04 12:54:00,79.0,60.4,30.03,NW,315,1.8,2.5,53,0.00,,,0.00,WUHU216HW,2013-08-04 16:54:00,
2013-08-04 12:59:00,79.2,60.6,30.03,NNW,338,2.5,2.5,53,0.00,,,0.00,WUHU216HW,2013-08-04 16:59:00,
2013-08-04 13:04:00,78.8,60.8,30.03,NNW,338,1.1,2.5,54,0.00,,,0.00,WUHU216HW,2013-08-04 17:04:00,
2013-08-04 13:09:00,78.8,60.2,30.03,SW,225,1.8,4.5,53,0.00,,,0.00,WUHU216HW,2013-08-04 17:09:00,
2013-08-04 13:14:00,78.8,60.8,30.03,NNW,338,2.0,4.5,54,0.00,,,0.00,WUHU216HW,2013-08-04 17:14:00,
2013-08-04 13:19:00,79.0,60.9,30.03,NW,315,2.7,3.4,54,0.00,,,0.00,WUHU216HW,2013-08-04 17:19:00,
2013-08-04 13:24:00,79.4,61.7,30.03,West,270,1.1,3.4,55,0.00,,,0.00,WUHU216HW,2013-08-04 17:24:00,
2013-08-04 13:29:00,79.7,62.1,30.03,West,270,2.0,2.7,55,0.00,,,0.00,WUHU216HW,2013-08-04 17:29:00,
2013-08-04 13:34:00,79.7,61.0,30.03,NW,315,2.5,3.1,53,0.00,,,0.00,WUHU216HW,2013-08-04 17:34:00,
2013-08-04 13:39:00,79.2,60.6,30.03,NNW,338,2.2,3.1,53,0.00,,,0.00,WUHU216HW,2013-08-04 17:39:00,
2013-08-04 13:44:00,79.0,60.9,30.03,WNW,293,2.5,2.5,54,0.00,,,0.00,WUHU216HW,2013-08-04 17:44:00,
2013-08-04 13:49:00,79.0,60.4,30.03,NNW,338,4.3,4.3,53,0.00,,,0.00,WUHU216HW,2013-08-04 17:49:00,
2013-08-04 13:54:00,79.2,61.1,30.02,North,0,1.1,4.3,54,0.00,,,0.00,WUHU216HW,2013-08-04 17:54:00,
2013-08-04 13:59:00,79.6,60.4,30.02,West,270,1.6,3.1,52,0.00,,,0.00,WUHU216HW,2013-08-04 17:59:00,
2013-08-04 14:04:00,79.6,59.3,30.02,NNW,338,4.0,4.0,50,0.00,,,0.00,WUHU216HW,2013-08-04 18:04:00,
2013-08-04 14:09:00,79.2,59.5,30.02,NNW,338,3.1,4.0,51,0.00,,,0.00,WUHU216HW,2013-08-04 18:09:00,
2013-08-04 14:14:00,79.4,60.2,30.02,NW,315,1.8,4.0,52,0.00,,,0.00,WUHU216HW,2013-08-04 18:14:00,
2013-08-04 14:19:00,79.4,58.6,30.02,NNW,338,3.6,3.6,49,0.00,,,0.00,WUHU216HW,2013-08-04 18:19:00,
2013-08-04 14:24:00,79.2,60.6,30.02,NW,315,1.8,3.6,53,0.00,,,0.00,WUHU216HW,2013-08-04 18:24:00,
2013-08-04 14:29:00,79.4,60.8,30.02,NW,315,1.6,3.4,53,0.00,,,0.00,WUHU216HW,2013-08-04 18:29:00,
2013-08-04 14:34:00,79.2,60.0,30.02,NNW,338,1.1,1.6,52,0.00,,,0.00,WUHU216HW,2013-08-04 18:34:00,
2013-08-04 14:39:00,79.2,60.6,30.02,NNW,338,4.3,4.3,53,0.00,,,0.00,WUHU216HW,2013-08-04 18:39:00,
2013-08-04 14:44:00,79.0,59.4,30.02,WNW,293,2.0,4.3,51,0.00,,,0.00,WUHU216HW,2013-08-04 18:44:00,
2013-08-04 14:49:00,79.0,59.9,30.02,NNW,338,1.1,4.3,52,0.00,,,0.00,WUHU216HW,2013-08-04 18:49:00,
2013-08-04 14:54:00,79.0,59.9,30.02,North,0,1.1,4.7,52,0.00,,,0.00,WUHU216HW,2013-08-04 18:54:00,
2013-08-04 14:59:00,79.4,60.8,30.01,NW,315,2.5,4.7,53,0.00,,,0.00,WUHU216HW,2013-08-04 18:59:00,
2013-08-04 15:04:00,79.6,60.4,30.01,NW,315,1.8,2.5,52,0.00,,,0.00,WUHU216HW,2013-08-04 19:04:00,
2013-08-04 15:11:00,79.6,59.3,30.01,North,0,1.8,3.4,50,0.00,,,0.00,WUHU216HW,2013-08-04 19:11:00,
2013-08-04 15:16:00,79.6,59.9,30.02,NW,315,2.9,3.4,51,0.00,,,0.00,WUHU216HW,2013-08-04 19:16:00,
2013-08-04 15:21:00,79.6,59.9,30.02,NNW,338,4.0,4.0,51,0.00,,,0.00,WUHU216HW,2013-08-04 19:21:00,
2013-08-04 15:26:00,79.2,57.8,30.02,NW,315,2.9,4.0,48,0.00,,,0.00,WUHU216HW,2013-08-04 19:26:00,
2013-08-04 15:31:00,78.8,57.4,30.02,NW,315,2.0,4.0,48,0.00,,,0.00,WUHU216HW,2013-08-04 19:31:00,
2013-08-04 15:36:00,79.0,59.4,30.02,NNW,338,2.7,2.7,51,0.00,,,0.00,WUHU216HW,2013-08-04 19:36:00,
2013-08-04 15:42:00,79.2,59.5,30.02,NNW,338,1.8,4.3,51,0.00,,,0.00,WUHU216HW,2013-08-04 19:42:00,
2013-08-04 15:47:00,79.4,59.1,30.02,WNW,293,3.1,4.3,50,0.00,,,0.00,WUHU216HW,2013-08-04 19:47:00,
2013-08-04 15:52:00,79.2,59.1,30.02,NNW,338,7.4,7.4,50,0.00,,,0.00,WUHU216HW,2013-08-04 19:52:00,
2013-08-04 15:57:00,79.0,59.4,30.02,NNW,338,4.5,7.4,51,0.00,,,0.00,WUHU216HW,2013-08-04 19:57:00,
2013-08-04 16:02:00,78.8,59.2,30.02,NNW,338,2.5,4.5,51,0.00,,,0.00,WUHU216HW,2013-08-04 20:02:00,
2013-08-04 16:07:00,79.0,58.9,30.02,NNW,338,4.7,4.7,50,0.00,,,0.00,WUHU216HW,2013-08-04 20:07:00,
2013-08-04 16:12:00,79.2,59.1,30.02,North,0,2.7,4.7,50,0.00,,,0.00,WUHU216HW,2013-08-04 20:12:00,
2013-08-04 16:17:00,79.2,59.1,30.02,NNW,338,2.5,4.7,50,0.00,,,0.00,WUHU216HW,2013-08-04 20:17:00,
2013-08-04 16:22:00,79.2,59.5,30.02,NNW,338,0.4,3.4,51,0.00,,,0.00,WUHU216HW,2013-08-04 20:22:00,
2013-08-04 16:27:00,79.6,58.7,30.02,North,0,3.6,3.6,49,0.00,,,0.00,WUHU216HW,2013-08-04 20:27:00,
2013-08-04 16:32:00,79.2,58.4,30.02,NNW,338,1.6,3.6,49,0.00,,,0.00,WUHU216HW,2013-08-04 20:32:00,
2013-08-04 16:37:00,79.0,58.9,30.02,NW,315,1.1,1.8,50,0.00,,,0.00,WUHU216HW,2013-08-04 20:37:00,
2013-08-04 16:42:00,79.0,57.6,30.02,NNW,338,2.9,2.9,48,0.00,,,0.00,WUHU216HW,2013-08-04 20:42:00,
2013-08-04 16:47:00,79.2,57.8,30.02,NW,315,0.7,4.5,48,0.00,,,0.00,WUHU216HW,2013-08-04 20:47:00,
2013-08-04 16:52:00,79.4,57.3,30.02,North,0,1.1,4.5,47,0.00,,,0.00,WUHU216HW,2013-08-04 20:52:00,
2013-08-04 16:57:00,79.4,57.3,30.02,NW,315,3.4,3.4,47,0.00,,,0.00,WUHU216HW,2013-08-04 20:57:00,
2013-08-04 17:02:00,79.2,57.2,30.02,NNW,338,1.6,3.4,47,0.00,,,0.00,WUHU216HW,2013-08-04 21:02:00,
2013-08-04 17:07:00,79.2,57.8,30.02,NNW,338,1.6,3.4,48,0.00,,,0.00,WUHU216HW,2013-08-04 21:07:00,
2013-08-04 17:12:00,79.2,57.2,30.02,NW,315,2.5,2.7,47,0.00,,,0.00,WUHU216HW,2013-08-04 21:12:00,
2013-08-04 17:17:00,79.0,57.6,30.02,WNW,293,1.8,2.7,48,0.00,,,0.00,WUHU216HW,2013-08-04 21:17:00,
2013-08-04 17:23:00,79.2,57.2,30.02,NNW,338,1.8,2.5,47,0.00,,,0.00,WUHU216HW,2013-08-04 21:23:00,
2013-08-04 17:28:00,78.8,56.9,30.02,NNW,338,2.7,2.9,47,0.00,,,0.00,WUHU216HW,2013-08-04 21:28:00,
2013-08-04 17:33:00,78.8,57.4,30.02,NNW,338,4.3,4.3,48,0.00,,,0.00,WUHU216HW,2013-08-04 21:33:00,
2013-08-04 17:38:00,78.8,58.1,30.02,West,270,0.4,4.3,49,0.00,,,0.00,WUHU216HW,2013-08-04 21:38:00,
2013-08-04 17:43:00,78.8,57.4,30.02,NNW,338,1.8,4.3,48,0.00,,,0.00,WUHU216HW,2013-08-04 21:43:00,
2013-08-04 17:47:00,78.8,58.1,30.02,NNW,338,3.6,3.6,49,0.00,,,0.00,WUHU216HW,2013-08-04 21:47:00,
2013-08-04 17:49:00,78.7,57.9,30.02,North,0,2.0,3.6,49,0.00,,,0.00,WUHU216HW,2013-08-04 21:49:00,
2013-08-04 17:54:00,78.7,57.3,30.02,NNW,338,2.0,3.6,48,0.00,,,0.00,WUHU216HW,2013-08-04 21:54:00,
2013-08-04 17:59:00,78.7,57.9,30.02,NW,315,1.1,3.1,49,0.00,,,0.00,WUHU216HW,2013-08-04 21:59:00,
2013-08-04 18:04:00,78.8,58.7,30.03,NW,315,0.4,1.6,50,0.00,,,0.00,WUHU216HW,2013-08-04 22:04:00,
2013-08-04 18:09:00,78.7,57.3,30.03,NNW,338,2.5,3.1,48,0.00,,,0.00,WUHU216HW,2013-08-04 22:09:00,
2013-08-04 18:14:00,78.5,57.2,30.04,NNW,338,1.3,3.1,48,0.00,,,0.00,WUHU216HW,2013-08-04 22:14:00,
2013-08-04 18:19:00,78.3,57.0,30.03,NW,315,0.7,2.5,48,0.00,,,0.00,WUHU216HW,2013-08-04 22:19:00,
2013-08-04 18:24:00,78.3,57.0,30.04,NW,315,0.9,2.5,48,0.00,,,0.00,WUHU216HW,2013-08-04 22:24:00,
2013-08-04 18:29:00,78.3,57.6,30.04,SW,225,1.3,1.8,49,0.00,,,0.00,WUHU216HW,2013-08-04 22:29:00,
2013-08-04 18:34:00,78.3,57.0,30.04,NNW,338,3.4,3.4,48,0.00,,,0.00,WUHU216HW,2013-08-04 22:34:00,
2013-08-04 18:39:00,78.1,57.4,30.04,NNW,338,1.1,3.4,49,0.00,,,0.00,WUHU216HW,2013-08-04 22:39:00,
2013-08-04 18:44:00,78.1,57.4,30.04,NW,315,0.7,3.4,49,0.00,,,0.00,WUHU216HW,2013-08-04 22:44:00,
2013-08-04 18:49:00,78.1,56.8,30.04,NW,315,1.3,3.1,48,0.00,,,0.00,WUHU216HW,2013-08-04 22:49:00,
2013-08-04 18:54:00,77.9,57.2,30.04,North,0,0.4,2.5,49,0.00,,,0.00,WUHU216HW,2013-08-04 22:54:00,
2013-08-04 18:59:00,77.9,57.2,30.05,North,0,0.2,1.3,49,0.00,,,0.00,WUHU216HW,2013-08-04 22:59:00,
2013-08-04 19:04:00,77.8,56.5,30.05,NNW,338,4.3,4.3,48,0.00,,,0.00,WUHU216HW,2013-08-04 23:04:00,
2013-08-04 19:09:00,77.8,57.1,30.05,NNW,338,0.7,4.3,49,0.00,,,0.00,WUHU216HW,2013-08-04 23:09:00,
2013-08-04 19:14:00,77.6,57.0,30.05,NNW,338,1.8,4.3,49,0.00,,,0.00,WUHU216HW,2013-08-04 23:14:00,
2013-08-04 19:19:00,77.4,57.4,30.05,NW,315,0.7,1.8,50,0.00,,,0.00,WUHU216HW,2013-08-04 23:19:00,
2013-08-04 19:24:00,77.4,57.4,30.05,NNW,338,0.0,1.3,50,0.00,,,0.00,WUHU216HW,2013-08-04 23:24:00,
2013-08-04 19:29:00,77.0,57.1,30.05,NNW,338,0.4,1.1,50,0.00,,,0.00,WUHU216HW,2013-08-04 23:29:00,
2013-08-04 19:34:00,76.9,57.4,30.05,NNW,338,0.0,1.1,51,0.00,,,0.00,WUHU216HW,2013-08-04 23:34:00,
2013-08-04 19:39:00,76.7,57.8,30.05,NNW,338,0.7,1.1,52,0.00,,,0.00,WUHU216HW,2013-08-04 23:39:00,
2013-08-04 19:44:00,76.5,57.6,30.05,NNW,338,0.4,1.1,52,0.00,,,0.00,WUHU216HW,2013-08-04 23:44:00,
2013-08-04 19:49:00,76.1,57.2,30.06,NNW,338,0.4,1.1,52,0.00,,,0.00,WUHU216HW,2013-08-04 23:49:00,
2013-08-04 19:54:00,76.0,57.6,30.06,NNW,338,0.4,0.4,53,0.00,,,0.00,WUHU216HW,2013-08-04 23:54:00,
2013-08-04 19:59:00,75.8,57.4,30.06,NNW,338,0.4,0.7,53,0.00,,,0.00,WUHU216HW,2013-08-04 23:59:00,
2013-08-04 20:04:00,75.2,57.0,30.06,North,0,0.7,1.6,53,0.00,,,0.00,WUHU216HW,2013-08-05 00:04:00,
2013-08-04 20:09:00,75.1,56.8,30.06,NW,315,1.8,1.8,53,0.00,,,0.00,WUHU216HW,2013-08-05 00:09:00,
2013-08-04 20:14:00,74.9,56.1,30.06,NW,315,0.7,1.8,52,0.00,,,0.00,WUHU216HW,2013-08-05 00:14:00,
2013-08-04 20:19:00,74.5,55.7,30.07,NNW,338,0.4,1.8,52,0.00,,,0.00,WUHU216HW,2013-08-05 00:19:00,
2013-08-04 20:24:00,74.3,55.5,30.07,NNW,338,1.6,1.8,52,0.00,,,0.00,WUHU216HW,2013-08-05 00:24:00,
2013-08-04 20:29:00,74.0,55.2,30.07,NNW,338,1.1,1.8,52,0.00,,,0.00,WUHU216HW,2013-08-05 00:29:00,
2013-08-04 20:34:00,73.8,55.0,30.07,NNW,338,1.3,1.6,52,0.00,,,0.00,WUHU216HW,2013-08-05 00:34:00,
2013-08-04 20:39:00,73.6,55.4,30.08,NW,315,1.8,1.8,53,0.00,,,0.00,WUHU216HW,2013-08-05 00:39:00,
2013-08-04 20:44:00,73.4,55.2,30.08,NW,315,0.7,1.8,53,0.00,,,0.00,WUHU216HW,2013-08-05 00:44:00,
2013-08-04 20:49:00,73.1,55.4,30.08,NNW,338,1.1,1.3,54,0.00,,,0.00,WUHU216HW,2013-08-05 00:49:00,
2013-08-04 20:54:00,73.1,55.4,30.09,North,0,1.8,1.8,54,0.00,,,0.00,WUHU216HW,2013-08-05 00:54:00,
2013-08-04 20:59:00,72.9,55.2,30.09,NNW,338,2.0,2.9,54,0.00,,,0.00,WUHU216HW,2013-08-05 00:59:00,
2013-08-04 21:04:00,72.7,55.0,30.09,NNW,338,1.8,2.9,54,0.00,,,0.00,WUHU216HW,2013-08-05 01:04:00,
2013-08-04 21:10:00,72.5,55.4,30.10,NNW,338,0.9,1.8,55,0.00,,,0.00,WUHU216HW,2013-08-05 01:10:00,
2013-08-04 21:15:00,72.4,55.2,30.10,NNW,338,0.4,1.1,55,0.00,,,0.00,WUHU216HW,2013-08-05 01:15:00,
2013-08-04 21:20:00,72.2,55.0,30.10,NNW,338,0.9,1.1,55,0.00,,,0.00,WUHU216HW,2013-08-05 01:20:00,
2013-08-04 21:25:00,72.0,55.4,30.10,NNW,338,0.4,1.1,56,0.00,,,0.00,WUHU216HW,2013-08-05 01:25:00,
2013-08-04 21:30:00,71.8,55.2,30.10,NNW,338,0.4,0.9,56,0.00,,,0.00,WUHU216HW,2013-08-05 01:30:00,
2013-08-04 21:35:00,71.6,55.1,30.10,NNW,338,0.9,0.9,56,0.00,,,0.00,WUHU216HW,2013-08-05 01:35:00,
2013-08-04 21:40:00,71.3,55.3,30.11,NNW,338,0.2,0.9,57,0.00,,,0.00,WUHU216HW,2013-08-05 01:40:00,
2013-08-04 21:45:00,71.1,55.1,30.11,NNW,338,1.3,1.3,57,0.00,,,0.00,WUHU216HW,2013-08-05 01:45:00,
2013-08-04 21:50:00,70.9,54.9,30.10,NNW,338,0.9,1.3,57,0.00,,,0.00,WUHU216HW,2013-08-05 01:50:00,
2013-08-04 21:55:00,70.9,55.5,30.11,NNW,338,0.9,1.3,58,0.00,,,0.00,WUHU216HW,2013-08-05 01:55:00,
2013-08-04 22:00:00,70.7,55.3,30.11,NNW,338,0.0,0.9,58,0.00,,,0.00,WUHU216HW,2013-08-05 02:00:00,
2013-08-04 22:05:00,70.6,55.1,30.11,NNW,338,0.4,0.9,58,0.00,,,0.00,WUHU216HW,2013-08-05 02:05:00,
2013-08-04 22:10:00,70.6,54.5,30.11,NNW,338,0.7,0.7,57,0.00,,,0.00,WUHU216HW,2013-08-05 02:10:00,
2013-08-04 22:15:00,70.2,54.7,30.11,NNW,338,0.0,0.7,58,0.00,,,0.00,WUHU216HW,2013-08-05 02:15:00,
2013-08-04 22:20:00,70.0,54.6,30.11,NNW,338,0.2,0.4,58,0.00,,,0.00,WUHU216HW,2013-08-05 02:20:00,
2013-08-04 22:25:00,69.8,54.5,30.11,NNW,338,0.0,0.2,58,0.00,,,0.00,WUHU216HW,2013-08-05 02:25:00,
2013-08-04 22:30:00,69.8,54.9,30.12,NNW,338,0.0,0.2,59,0.00,,,0.00,WUHU216HW,2013-08-05 02:30:00,
2013-08-04 22:35:00,69.7,54.7,30.12,NNW,338,0.2,0.4,59,0.00,,,0.00,WUHU216HW,2013-08-05 02:35:00,
2013-08-04 22:40:00,69.5,54.5,30.12,NNW,338,0.0,0.4,59,0.00,,,0.00,WUHU216HW,2013-08-05 02:40:00,
2013-08-04 22:45:00,69.1,54.7,30.12,NNW,338,0.2,0.4,60,0.00,,,0.00,WUHU216HW,2013-08-05 02:45:00,
2013-08-04 22:50:00,68.9,54.5,30.12,NNW,338,0.4,0.4,60,0.00,,,0.00,WUHU216HW,2013-08-05 02:50:00,
2013-08-04 22:55:00,68.9,54.5,30.12,NNW,338,0.2,0.4,60,0.00,,,0.00,WUHU216HW,2013-08-05 02:55:00,
2013-08-04 23:00:00,68.8,54.4,30.12,NNW,338,0.4,0.4,60,0.00,,,0.00,WUHU216HW,2013-08-05 03:00:00,
2013-08-04 23:05:00,68.8,54.4,30.12,NNW,338,0.0,0.4,60,0.00,,,0.00,WUHU216HW,2013-08-05 03:05:00,
2013-08-04 23:10:00,68.6,54.2,30.13,NNW,338,1.1,1.1,60,0.00,,,0.00,WUHU216HW,2013-08-05 03:10:00,
2013-08-04 23:15:00,68.6,54.2,30.13,NNW,338,0.0,1.1,60,0.00,,,0.00,WUHU216HW,2013-08-05 03:15:00,
2013-08-04 23:20:00,68.6,54.2,30.13,NNW,338,1.1,1.1,60,0.00,,,0.00,WUHU216HW,2013-08-05 03:20:00,
2013-08-04 23:25:00,68.6,54.2,30.13,NNW,338,0.4,1.1,60,0.00,,,0.00,WUHU216HW,2013-08-05 03:25:00,
2013-08-04 23:30:00,68.4,54.0,30.13,NNW,338,0.4,1.1,60,0.00,,,0.00,WUHU216HW,2013-08-05 03:30:00,
2013-08-04 23:35:00,68.4,54.0,30.13,NNW,338,0.4,0.4,60,0.00,,,0.00,WUHU216HW,2013-08-05 03:35:00,
2013-08-04 23:40:00,68.2,53.8,30.13,NNW,338,0.2,0.4,60,0.00,,,0.00,WUHU216HW,2013-08-05 03:40:00,
2013-08-04 23:45:00,68.2,53.8,30.13,NNW,338,0.0,0.4,60,0.00,,,0.00,WUHU216HW,2013-08-05 03:45:00,
2013-08-04 23:50:00,68.0,54.1,30.13,NNW,338,0.0,0.0,61,0.00,,,0.00,WUHU216HW,2013-08-05 03:50:00,
2013-08-04 23:55:00,68.0,54.1,30.13,NNW,338,0.0,0.0,61,0.00,,,0.00,WUHU216HW,2013-08-05 03:55:00,